User: anonymous   Login
Location: Bermeries
(50.2863°N, 3.7551°E)
Time: 12:53:19
(UTC+00:00)
Language:

MSX - Orbit

View from above orbital plane
View from above orbital plane
View from above satellite
View from above satellite

Ground track
Ground track

The orbit data is extracted from the following two-line orbital elements,

1 23851U 96024A   24200.81061421 -.00000022  00000-0  14916-4 0  9991
2 23851  98.9702 139.4974 0007550   9.0824 351.0475 13.98245270440748
Epoch (UTC): 18 July 2024 19:27:17
Eccentricity: 0.0007550
inclination: 98.9702°
perigee height: 894 km
apogee height: 905 km
right ascension of ascending node: 139.4974°
argument of perigee: 9.0824°
revolutions per day: 13.98245270
mean anomaly at epoch: 351.0475°
orbit number at epoch: 44074

The dashed part of the orbit path shows where the satellite is in the earth's shadow,  

DLR